When you browse on this site, cookies collect data to enhance your experience and personalize the content and advertising you see.
Visit our Privacy Policy to learn more. By continuing to use the site, you agree to this use of cookies and data.
  • en France
  • Liste des pays
  • À 7 jours
  • Température de l'eau
  • Carte satellitaire
  • Carte météo
  • Widgets météo
  • user-avatar
    Se connecter

    Météo par heure à Korçё

    Ce jour, 24 Mars, Dimanche

    Heure Température Précipitation Vent Pression Humidité
    00:00 +6°C° 0 mm 2 m/s 668 mmHg 64%
    01:00 +6°C° 0 mm 2 m/s 667 mmHg 62%
    02:00 +6°C° 0 mm 2 m/s 667 mmHg 65%
    03:00 +5°C° 0 mm 2 m/s 667 mmHg 68%
    04:00 +5°C° 0 mm 2 m/s 667 mmHg 71%
    05:00 +5°C° 0 mm 2 m/s 667 mmHg 71%
    06:00 +6°C° 0 mm 2 m/s 668 mmHg 72%
    07:00 +7°C° 0 mm 2 m/s 668 mmHg 72%
    08:00 +9°C° 0 mm 2 m/s 669 mmHg 63%
    09:00 +12°C° 0 mm 2 m/s 669 mmHg 54%
    10:00 +14°C° 0 mm 2 m/s 670 mmHg 45%
    11:00 +14°C° 0 mm 2 m/s 670 mmHg 41%
    12:00 +15°C° 0 mm 2 m/s 670 mmHg 38%
    13:00 +16°C° 0 mm 2 m/s 670 mmHg 35%
    14:00 +16°C° 0 mm 2 m/s 669 mmHg 36%
    15:00 +16°C° 0 mm 2 m/s 669 mmHg 37%
    16:00 +16°C° 0 mm 2 m/s 669 mmHg 38%
    17:00 +14°C° 0 mm 2 m/s 668 mmHg 46%
    18:00 +12°C° 0 mm 2 m/s 668 mmHg 54%
    19:00 +10°C° 0 mm 1 m/s 667 mmHg 62%
    20:00 +9°C° 0 mm 1 m/s 667 mmHg 63%
    21:00 +9°C° 0 mm 1 m/s 667 mmHg 63%
    22:00 +7°C° 0 mm 0 m/s 667 mmHg 64%
    23:00 +7°C° 0 mm 0 m/s 667 mmHg 64%

    Demain, 25 Mars, Lundi

    Heure Température Précipitation Vent Pression Humidité
    00:00 +6°C° 0 mm 0 m/s 667 mmHg 63%
    01:00 +6°C° 0 mm 0 m/s 667 mmHg 63%
    02:00 +6°C° 0 mm 0 m/s 666 mmHg 64%
    03:00 +6°C° 0 mm 0 m/s 666 mmHg 65%
    04:00 +5°C° 0 mm 0 m/s 666 mmHg 66%
    05:00 +6°C° 0 mm 0 m/s 666 mmHg 64%
    06:00 +7°C° 0 mm 0 m/s 666 mmHg 62%
    07:00 +8°C° 0 mm 0 m/s 666 mmHg 61%
    08:00 +10°C° 0 mm 1 m/s 666 mmHg 54%
    09:00 +12°C° 0 mm 1 m/s 667 mmHg 48%
    10:00 +14°C° 0 mm 2 m/s 667 mmHg 41%
    11:00 +14°C° 0 mm 2 m/s 667 mmHg 40%
    12:00 +15°C° 0 mm 2 m/s 666 mmHg 38%
    13:00 +14°C° 0 mm 3 m/s 666 mmHg 36%
    14:00 +14°C° 0 mm 3 m/s 665 mmHg 39%
    15:00 +13°C° 0 mm 3 m/s 665 mmHg 41%
    16:00 +13°C° 0 mm 3 m/s 664 mmHg 44%
    17:00 +12°C° 0 mm 2 m/s 664 mmHg 51%
    18:00 +9°C° 0 mm 2 m/s 663 mmHg 59%
    19:00 +8°C° 0 mm 1 m/s 663 mmHg 66%
    20:00 +8°C° 0 mm 1 m/s 662 mmHg 69%
    21:00 +7°C° 0 mm 1 m/s 662 mmHg 71%
    22:00 +5°C° 0 mm 0 m/s 662 mmHg 74%
    23:00 +6°C° 0 mm 1 m/s 662 mmHg 74%

    Après-demain, 26 Mars, Mardi

    Heure Température Précipitation Vent Pression Humidité
    00:00 +6°C° 0 mm 1 m/s 662 mmHg 75%
    01:00 +5°C° 0 mm 1 m/s 661 mmHg 76%
    02:00 +5°C° 0 mm 1 m/s 661 mmHg 75%
    03:00 +5°C° 0 mm 1 m/s 661 mmHg 74%
    04:00 +5°C° 0 mm 1 m/s 661 mmHg 73%
    05:00 +5°C° 0 mm 0 m/s 661 mmHg 70%
    06:00 +5°C° 0 mm 0 m/s 662 mmHg 67%
    07:00 +6°C° 0 mm 0 m/s 662 mmHg 63%
    08:00 +8°C° 0 mm 0 m/s 663 mmHg 58%
    09:00 +11°C° 0 mm 1 m/s 664 mmHg 52%
    10:00 +13°C° 0 mm 1 m/s 664 mmHg 46%
    11:00 +13°C° 0.3 mm 1 m/s 664 mmHg 45%
    12:00 +14°C° 0.3 mm 1 m/s 664 mmHg 45%
    13:00 +14°C° 0.3 mm 2 m/s 664 mmHg 44%
    14:00 +13°C° 1.2 mm 2 m/s 664 mmHg 50%
    15:00 +12°C° 1.2 mm 2 m/s 664 mmHg 56%
    16:00 +10°C° 1.2 mm 2 m/s 664 mmHg 62%
    17:00 +9°C° 0.7 mm 2 m/s 664 mmHg 67%
    18:00 +8°C° 0.7 mm 2 m/s 664 mmHg 72%
    19:00 +8°C° 0.7 mm 1 m/s 665 mmHg 78%
    20:00 +7°C° 0 mm 2 m/s 665 mmHg 78%
    21:00 +6°C° 0 mm 2 m/s 665 mmHg 79%
    22:00 +5°C° 0 mm 2 m/s 666 mmHg 80%
    23:00 +5°C° 0 mm 2 m/s 666 mmHg 80%

    27 Mars, Mercredi

    Heure Température Précipitation Vent Pression Humidité
    00:00 +4°C° 0 mm 2 m/s 666 mmHg 80%
    01:00 +4°C° 0 mm 2 m/s 666 mmHg 80%
    02:00 +3°C° 0 mm 2 m/s 666 mmHg 80%
    03:00 +3°C° 0 mm 2 m/s 666 mmHg 79%
    04:00 +2°C° 0 mm 2 m/s 666 mmHg 78%
    05:00 +3°C° 0 mm 2 m/s 666 mmHg 74%
    06:00 +3°C° 0 mm 2 m/s 666 mmHg 71%
    07:00 +4°C° 0 mm 2 m/s 667 mmHg 67%
    08:00 +5°C° 0 mm 2 m/s 667 mmHg 62%
    09:00 +7°C° 0 mm 2 m/s 668 mmHg 57%
    10:00 +9°C° 0 mm 2 m/s 668 mmHg 53%
    11:00 +9°C° 0.1 mm 2 m/s 668 mmHg 53%
    12:00 +9°C° 0.1 mm 2 m/s 668 mmHg 54%
    13:00 +10°C° 0.1 mm 2 m/s 668 mmHg 54%
    14:00 +9°C° 0.8 mm 2 m/s 668 mmHg 62%
    15:00 +8°C° 0.8 mm 2 m/s 667 mmHg 69%
    16:00 +7°C° 0.8 mm 2 m/s 667 mmHg 77%
    17:00 +6°C° 0.8 mm 2 m/s 667 mmHg 81%
    18:00 +6°C° 0.8 mm 2 m/s 667 mmHg 84%
    19:00 +5°C° 0.8 mm 2 m/s 667 mmHg 88%
    20:00 +5°C° 0.7 mm 2 m/s 668 mmHg 88%
    21:00 +5°C° 0.7 mm 2 m/s 668 mmHg 89%
    22:00 +5°C° 0.7 mm 2 m/s 668 mmHg 89%
    23:00 +5°C° 0.1 mm 2 m/s 668 mmHg 89%

    28 Mars, Jeudi

    Heure Température Précipitation Vent Pression Humidité
    00:00 +4°C° 0.1 mm 2 m/s 668 mmHg 89%
    01:00 +4°C° 0.1 mm 2 m/s 667 mmHg 89%
    02:00 +4°C° 0 mm 2 m/s 667 mmHg 89%
    03:00 +3°C° 0 mm 2 m/s 667 mmHg 89%
    04:00 +3°C° 0 mm 2 m/s 667 mmHg 89%
    05:00 +3°C° 0 mm 3 m/s 667 mmHg 87%
    06:00 +3°C° 0 mm 3 m/s 668 mmHg 85%
    07:00 +4°C° 0 mm 3 m/s 668 mmHg 83%
    08:00 +4°C° 0 mm 4 m/s 668 mmHg 77%
    09:00 +5°C° 0 mm 4 m/s 669 mmHg 71%
    10:00 +5°C° 0 mm 4 m/s 669 mmHg 65%
    11:00 +5°C° 0 mm 4 m/s 669 mmHg 64%
    12:00 +6°C° 0 mm 4 m/s 669 mmHg 62%
    13:00 +6°C° 0 mm 4 m/s 669 mmHg 60%
    14:00 +6°C° 0 mm 4 m/s 669 mmHg 60%
    15:00 +5°C° 0 mm 4 m/s 668 mmHg 60%
    16:00 +5°C° 0 mm 4 m/s 668 mmHg 61%
    17:00 +4°C° 0 mm 3 m/s 668 mmHg 66%
    18:00 +3°C° 0 mm 3 m/s 668 mmHg 70%
    19:00 +3°C° 0 mm 2 m/s 668 mmHg 75%
    20:00 +2°C° 0 mm 2 m/s 668 mmHg 77%
    21:00 +1°C° 0 mm 2 m/s 668 mmHg 80%
    22:00 +1°C° 0 mm 2 m/s 668 mmHg 82%
    23:00 +1°C° 0 mm 2 m/s 668 mmHg 82%

    29 Mars, Vendredi

    Heure Température Précipitation Vent Pression Humidité
    00:00 -1°C° 0 mm 2 m/s 668 mmHg 82%
    01:00 -1°C° 0 mm 2 m/s 668 mmHg 82%
    02:00 -1°C° 0 mm 2 m/s 668 mmHg 82%
    03:00 -1°C° 0 mm 2 m/s 667 mmHg 82%
    04:00 -1°C° 0 mm 2 m/s 667 mmHg 81%
    05:00 +1°C° 0 mm 2 m/s 668 mmHg 79%
    06:00 +1°C° 0 mm 2 m/s 668 mmHg 76%
    07:00 +2°C° 0 mm 2 m/s 668 mmHg 74%
    08:00 +2°C° 0 mm 3 m/s 669 mmHg 67%
    09:00 +4°C° 0 mm 3 m/s 669 mmHg 61%
    10:00 +5°C° 0 mm 3 m/s 669 mmHg 55%
    11:00 +7°C° 0 mm 3 m/s 669 mmHg 53%
    12:00 +7°C° 0 mm 3 m/s 669 mmHg 51%
    13:00 +7°C° 0 mm 3 m/s 669 mmHg 49%
    14:00 +7°C° 0 mm 3 m/s 668 mmHg 49%
    15:00 +7°C° 0 mm 3 m/s 668 mmHg 48%
    16:00 +7°C° 0 mm 3 m/s 668 mmHg 48%
    17:00 +4°C° 0 mm 3 m/s 667 mmHg 52%
    18:00 +4°C° 0 mm 2 m/s 667 mmHg 57%
    19:00 +2°C° 0 mm 2 m/s 667 mmHg 61%
    20:00 +2°C° 0 mm 2 m/s 667 mmHg 61%
    21:00 +1°C° 0 mm 2 m/s 667 mmHg 60%
    22:00 +1°C° 0 mm 2 m/s 668 mmHg 60%
    23:00 +1°C° 0 mm 2 m/s 668 mmHg 60%
    Voir plus